This demonstration page uses our WeatherBlox Daily Observations layout. Learn more.

41.55636, -103.73856

Hourly Observations for March 30, 2015

Temp ( °F °C ) Dew Point ( °F °C ) Humidity (%) Winds ( mph kmh ) Pressure ( in mb ) Visibility ( mi km ) Precip ( " mm )
12:53 am 00:53 Clear 43 6.1 24 -4.4 47 47 E 5 7 30.05 1018 10 16.0934 0 0
1:53 am 01:53 Clear 37 2.8 23 -5 57 57 E 7 11 30.04 1017 10 16.0934 0 0
2:53 am 02:53 Clear 36 2.2 23 -5 59 59 NNE 7 11 30.02 1017 10 16.0934 0 0
3:53 am 03:53 Clear 33 0.6 24 -4.4 70 70 N 5 7 30.02 1017 10 16.0934 0 0
4:53 am 04:53 Clear 31 -0.6 23 -5 72 72 W 6 9 30.04 1017 10 16.0934 0 0
5:53 am 05:53 Clear 32 0 23 -5 69 69 NW 9 15 30.04 1017 10 16.0934 0 0
6:53 am 06:53 Sunny 32 0 23 -5 69 69 NNW 8 13 30.07 1018 10 16.0934 0 0
7:53 am 07:53 Sunny 39 3.9 26 -3.3 60 60 W 10 17 30.09 1019 10 16.0934 0 0
8:53 am 08:53 Sunny 48 8.9 27 -2.8 44 44 WNW 10 17 30.09 1019 10 16.0934 0 0
9:53 am 09:53 Sunny 58 14.4 25 -3.9 28 28 WNW 13 20 30.09 1019 10 16.0934 0 0
10:53 am 10:53 Sunny 63 17.2 26 -3.3 25 25 W 9 15 30.1 1019 10 16.0934 0 0
11:53 am 11:53 Sunny 69 20.6 25 -3.9 19 19 NNW 13 20 30.07 1018 10 16.0934 0 0
12:53 pm 12:53 Sunny 70 21.1 25 -3.9 18 18 N 7 11 30.04 1017 10 16.0934 0 0
1:53 pm 13:53 Sunny 71 21.7 26 -3.3 19 19 NW 12 19 30.04 1017 10 16.0934 0 0
2:53 pm 14:53 Sunny 71 21.7 24 -4.4 17 17 WNW 7 11 30.02 1017 10 16.0934 0 0
3:53 pm 15:53 Sunny 72 22.2 26 -3.3 18 18 N 16 26 30.01 1016 10 16.0934 0 0
4:53 pm 16:53 Sunny 71 21.7 25 -3.9 18 18 N 9 15 30 1016 10 16.0934 0 0
5:53 pm 17:53 Sunny 70 21.1 24 -4.4 18 18 N 10 17 29.99 1016 10 16.0934 0 0
6:53 pm 18:53 Sunny 65 18.3 27 -2.8 24 24 N 7 11 30 1016 10 16.0934 0 0
7:53 pm 19:53 Clear 55 12.8 25 -3.9 31 31 NNE 6 9 30.02 1017 10 16.0934 0 0
8:53 pm 20:53 Clear 51 10.6 27 -2.8 39 39 NNE 10 17 30.03 1017 10 16.0934 0 0
9:53 pm 21:53 Clear 47 8.3 26 -3.3 44 44 Calm 30.03 1017 10 16.0934 0 0
10:53 pm 22:53 Clear 47 8.3 25 -3.9 42 42 ESE 5 7 30.02 1017 10 16.0934 0 0
11:53 pm 23:53 Clear 41 5 26 -3.3 55 55 NNE 8 13 30.01 1016 10 16.0934 0 0

Powered by AerisWeather